Location: Newark
(29.9790°N, 31.1340°E)
Time: 05:41:22
(UTC+00:00)

Tiros 1 despin weight - Visible Passes

Search period start: 18 January 2020 00:00
Search period end: 28 January 2020 00:00
Orbit: 593 x 643 km, 48.2° (Epoch: 17 January)

Date Brightness Start Highest point End Pass type
(mag) Time Alt. Az. Time Alt. Az. Time Alt. Az.
18 Jan ? 16:19:59 10° N 16:22:14 13° NNE 16:23:07 13° NNE visible
18 Jan ? 18:00:06 10° NW 18:00:12 11° NW 18:00:12 11° NW visible
19 Jan ? 16:35:46 10° NNW 16:39:16 20° NNE 16:39:25 20° NNE visible
20 Jan ? 16:51:50 10° NNW 16:55:52 34° NNE 16:55:52 34° NNE visible
21 Jan ? 17:08:07 10° NW 17:12:33 67° NNE 17:12:33 67° NNE visible
22 Jan ? 15:43:39 10° NNW 15:47:31 25° NNE 15:51:23 10° E visible
22 Jan ? 17:24:43 10° WNW 17:29:18 56° SW 17:29:31 55° SW visible
23 Jan ? 15:59:48 10° NW 16:04:18 45° NE 16:08:47 10° ESE visible
23 Jan ? 17:41:51 10° WNW 17:45:40 25° SW 17:46:50 22° SSW visible
24 Jan ? 16:16:12 10° NW 16:20:54 88° SW 16:25:35 10° SE visible
24 Jan ? 18:00:52 10° WSW 18:01:56 11° SW 18:03:00 10° SW visible
25 Jan ? 16:32:59 10° WNW 16:37:21 39° SW 16:41:43 10° SSE visible
26 Jan ? 16:50:32 10° W 16:53:40 18° SW 16:56:48 10° S visible
